IOD-1 GEMS (44385 NORAD) Tracking and Keplerian Element Data

This shows tracking and keplerian element data for the satellite.

Feedback or suggestion? Click here.




ElementValue
Catalog44385
NameIOD-1 GEMS
Epoch Orbit1686
Epoch Day292.87106726
Epoch Year2019
RAAN101.5048
Inclination51.6411
Eccentricity0.0003863
Argument of Perigee146.9647
Mean Anonmoly213.1586
Mean Motion15.5356901
Decay Rate0.00014217
L11 44385U 98067QK 19292.87106726 .00014217 00000-0 22609-3 0 9991
L22 44385 51.6411 101.5048 0003863 146.9647 213.1586 15.53569010 16862

Live tracking and technical data element details for IOD-1 GEMS (NORAD 44385). IOD-1 GEMS can be tracked NOW for your location showing map with azimuth and elevation plus other details from your city location.

Track the satellite on the map from your city or location and see movement details for azimuth, elevation, latitude, longitude, range, height, and movement on the map or in text.







IsCatalogInMostPopularTable: catalog: 44385, numindb: 17
Update: records affected: 1



GetName: 44385 IOD-1 GEMS

Hit Count: updated at: Tue, 22 Oct 2019 23:31:16 GMT